Hollywood, FL

12:43 PM EST on November 18, 2017 (GMT -0500)
North Perry

Weather History for KHWO - January, 2014

Change the Weather History Date:

Thursday, January 2, 2014

  Actual Average (KFLL) Record (KFLL)
Temperature  
Mean Temperature 75 °F -  
Max Temperature 84 °F 77 °F 86 °F (1924)
Min Temperature 66 °F 60 °F 32 °F (1949)
Cooling Degree Days 10    
Growing Degree Days 25 (Base 50)    
Moisture  
Dew Point 68 °F    
Average Humidity 79    
Maximum Humidity 100    
Minimum Humidity 55    
Precipitation  
Precipitation 0.01 in - - ()
Sea Level Pressure  
Sea Level Pressure 29.99 in    
Wind  
Wind Speed 4 mph (SSW)    
Max Wind Speed 15 mph    
Max Gust Speed 22 mph    
Visibility 10 miles    
Events      
Averages and records for this station are not official NWS values.
T = Trace of Precipitation, MM = Missing Value Source: NWS Daily Summary

Daily Weather History Graph

Daily Weather History Graph

Search for Another Location

Airport or City:

Trip Planner

Search our weather history database for the weather conditions in past years. The results will help you decide how hot, cold, wet, or windy it might be!

Date:

Astronomy

Jan. 02, 2014 Rise Set
Actual Time 7:08 AM EST 5:41 PM EST
Civil Twilight 6:43 AM EST 6:06 PM EST
Nautical Twilight 6:14 AM EST 6:35 PM EST
Astronomical Twilight 5:46 AM EST 7:03 PM EST
Moon 7:58 AM EST (1/2) 7:24 PM EST (1/2)
Length of Visible Light 11h 23m
Length of Day
10h 33m
New Moon, 2% of the Moon is Illuminated
Jan 2
New Moon
Jan 7
First Quarter
Jan 15
Full
Jan 24
Last Quarter
Jan 30
New

Hourly Weather History & Observations

Time (EST) Temp. Heat Index Dew Point Humidity Pressure Visibility Wind Dir Wind Speed Gust Speed Precip Events Conditions
12:53 AM 72.0 °F - 70.0 °F 93% 30.06 in 10.0 mi Calm Calm - N/A   Clear
1:53 AM 71.1 °F - 70.0 °F 96% 30.04 in 10.0 mi SSE 3.5 mph - 0.01 in   Partly Cloudy
2:53 AM 71.1 °F - 68.0 °F 90% 30.02 in 10.0 mi Calm Calm - N/A   Clear
3:34 AM 69.8 °F - 69.8 °F 100% 30.02 in 10.0 mi Calm Calm - N/A   Mostly Cloudy
3:50 AM 69.8 °F - 68.0 °F 94% 30.02 in 10.0 mi Calm Calm - N/A   Scattered Clouds
3:53 AM 69.1 °F - 68.0 °F 96% 30.02 in 10.0 mi Calm Calm - N/A   Scattered Clouds
4:53 AM 68.0 °F - 66.9 °F 96% 30.02 in 10.0 mi Calm Calm - N/A   Partly Cloudy
5:53 AM 66.9 °F - 66.0 °F 97% 30.01 in 10.0 mi Calm Calm - N/A   Clear
6:53 AM 66.9 °F - 66.0 °F 97% 30.02 in 10.0 mi Calm Calm - N/A   Clear
7:53 AM 69.1 °F - 68.0 °F 96% 30.04 in 10.0 mi Calm Calm - N/A   Clear
8:53 AM 77.0 °F - 70.0 °F 79% 30.05 in 10.0 mi South 3.5 mph - N/A   Clear
9:53 AM 80.1 °F 82.9 °F 69.1 °F 69% 30.04 in 10.0 mi South 9.2 mph - N/A   Scattered Clouds
10:53 AM 81.0 °F 83.8 °F 68.0 °F 65% 30.03 in 10.0 mi South 15.0 mph 21.9 mph N/A   Scattered Clouds
10:59 AM 80.6 °F 82.7 °F 66.2 °F 61% 30.02 in 10.0 mi South 13.8 mph 21.9 mph N/A   Scattered Clouds
11:43 AM 82.4 °F 84.6 °F 66.2 °F 58% 30.00 in 10.0 mi South 12.7 mph - N/A   Mostly Cloudy
11:53 AM 82.0 °F 84.5 °F 66.9 °F 60% 30.00 in 10.0 mi SSW 10.4 mph - N/A   Mostly Cloudy
12:53 PM 84.0 °F 86.3 °F 66.0 °F 55% 29.95 in 10.0 mi South 13.8 mph - N/A   Scattered Clouds
1:53 PM 84.0 °F 87.8 °F 69.1 °F 61% 29.92 in 10.0 mi South 12.7 mph - N/A   Mostly Cloudy
2:20 PM 82.4 °F 85.4 °F 68.0 °F 62% 29.91 in 10.0 mi South 11.5 mph - N/A   Partly Cloudy
2:53 PM 82.9 °F 85.4 °F 66.9 °F 58% 29.91 in 10.0 mi SSW 11.5 mph 20.7 mph N/A   Mostly Cloudy
3:53 PM 84.0 °F 87.0 °F 68.0 °F 58% 29.91 in 10.0 mi SSW 11.5 mph - N/A   Scattered Clouds
4:53 PM 81.0 °F 83.3 °F 66.9 °F 62% 29.92 in 10.0 mi SW 13.8 mph - N/A   Clear
5:53 PM 79.0 °F - 66.9 °F 66% 29.92 in 10.0 mi SW 9.2 mph - N/A   Clear
6:53 PM 75.9 °F - 66.0 °F 71% 29.94 in 10.0 mi WSW 6.9 mph - N/A   Clear
7:53 PM 75.0 °F - 68.0 °F 79% 29.96 in 10.0 mi SW 6.9 mph - N/A   Clear
8:53 PM 73.9 °F - 69.1 °F 85% 29.97 in 10.0 mi WSW 6.9 mph - N/A   Clear
9:53 PM 73.0 °F - 70.0 °F 90% 29.97 in 10.0 mi SW 4.6 mph - N/A   Clear
10:53 PM 72.0 °F - 70.0 °F 93% 29.97 in 10.0 mi SW 5.8 mph - N/A   Partly Cloudy
11:53 PM 72.0 °F - 70.0 °F 93% 29.97 in 10.0 mi SW 4.6 mph - N/A   Scattered Clouds